#timestamp,LO_Frequency,Hit,StdDev 
1600366735.8,286047028.9,P
1600366755.7,286047030.8,P
1600366775.5,286047030.4,P
1600366795.3,286047030.3,Y
1600366815.2,286047004.2,P
1600366835.0,286047003.5,N
1600366835.9,286047003.5,N
1600366855.8,286047004.2,N
1600366875.6,286047003.8,N
1600366895.4,286047003.2,N
1600366915.3,286047005.5,N
1600366935.1,286047003.4,N
1600366955.8,286047002.9,N
1600366975.7,286047003.0,N
1600366995.5,286047005.3,N
1600367015.4,286047007.3,N
1600367035.2,286047007.3,N
1600367055.0,286047006.1,N
1600367055.9,286047006.1,N
1600367075.8,286047007.5,N
1600367095.6,286047005.1,N
1600367115.5,286047007.4,N
1600367135.3,286047004.5,N
1600367155.1,286047007.0,N
1600367175.9,286047004.6,N
1600367195.7,286047006.6,N
1600367215.5,286047009.0,N
1600367235.4,286047007.4,N
1600367255.2,286047008.0,N
1600367275.1,286047010.3,N
1600367276.0,286047010.3,N
1600367295.8,286047010.0,N
1600367315.6,286047011.2,N
1600367335.5,286047011.5,N
1600367355.3,286047014.0,Y
1600367375.1,286047007.2,P
1600367395.9,286047005.0,P
1600367415.7,286047006.2,P
1600367435.6,286047008.8,Y
1600367455.4,286047000.1,P
1600367475.2,286047002.3,N
1600367495.1,286047001.6,N
1600367496.0,286047001.6,N
1600367515.8,286047002.1,N
1600367535.7,286047001.6,N
1600367555.5,286047001.3,N
1600367575.3,286047005.7,Y
1600367595.2,286047001.8,P
1600367615.0,286047001.8,P
1600367615.9,286047001.8,P
1600367635.7,286047003.9,Y
1600367655.6,286047002.5,P
1600367675.4,286047003.8,P
1600367695.3,286047004.3,P
1600367715.1,286047003.3,Y
1600367735.8,286047000.1,P
1600367755.7,286047002.1,N
1600367775.5,286047000.0,N
1600367795.3,286047001.0,N
1600367815.2,286047002.4,N
1600367835.0,286047002.0,N
1600367835.9,286047002.0,N
1600367855.8,286047002.0,N
1600367875.6,286047003.8,Y
1600367895.4,286047000.2,P
1600367915.3,286047002.0,N
1600367935.1,286047001.5,N
1600367955.9,286047001.7,N
1600367975.7,286047003.7,Y
1600367995.5,286047001.9,P
1600368015.4,286047004.4,P
1600368035.2,286047003.6,N
1600368055.0,286047003.3,N
1600368056.0,286047003.3,N
1600368075.8,286047006.0,Y
1600368095.6,286047004.0,P
1600368115.5,286047001.6,P
1600368135.3,286047004.0,P
1600368155.1,286047003.4,Y
1600368175.9,286047002.6,P
1600368195.7,286047002.5,P
1600368215.6,286047002.4,P
1600368235.4,286047001.6,Y
1600368255.2,286046999.4,P
1600368275.1,286047000.8,N
1600368276.0,286047000.8,N
1600368295.8,286047000.7,N
1600368315.7,286047000.8,N
1600368335.5,286046998.1,N
1600368355.3,286047002.8,N
1600368375.2,286047002.1,N
1600368395.0,286047005.2,Y
1600368395.9,286047005.2,P
1600368415.7,286047007.6,P
1600368435.6,286047004.6,N
1600368455.4,286047003.0,N
1600368475.3,286047003.9,N
1600368495.1,286047003.5,N
1600368496.0,286047003.5,N
1600368515.8,286047003.6,N
1600368535.7,286047003.7,N
1600368555.5,286047003.3,N
1600368575.4,286047005.9,Y
1600368595.2,286047002.5,P
1600368615.0,286047002.2,P
1600368615.9,286047002.2,N
1600368635.8,286047003.1,Y
1600368655.6,286047002.4,P
1600368675.4,286047002.7,P
1600368695.3,286047002.5,P
1600368715.1,286047002.3,Y
1600368735.9,286047001.0,P
1600368755.7,286047000.7,N
1600368775.5,286047000.1,N
1600368795.4,286047002.1,N
1600368815.2,286047001.6,N
1600368835.1,286047002.4,N
1600368836.0,286047002.4,N
1600368855.8,286047002.2,N
1600368875.6,286047002.2,N
1600368895.5,286047004.2,Y
1600368915.3,286047000.0,P
1600368935.1,286047002.6,N
1600368955.9,286047002.5,N
1600368975.7,286047002.2,N
1600368995.6,286047003.9,Y
1600369015.4,286047002.1,P
1600369035.2,286047002.5,P
1600369055.1,286047003.6,P
1600369056.0,286047003.6,Y
1600369075.8,286047003.1,P
1600369095.7,286047004.1,P
1600369115.5,286047005.7,P
1600369135.3,286047004.1,Y
1600369155.2,286046995.3,P
1600369175.0,286046997.3,N
1600369175.9,286046997.3,N
1600369195.8,286047001.0,N
